[[{"header":{"parameterUnit":"m.s-1","parameterCategory":1,"la1":30.2991,"la2":30.254,"lo1":-89.0895,"lo2":-89.0444,"dy":0.0017,"dx":0.0017,"nx":28,"ny":28,"refTime":"2024-06-21T09:00:00:Z","depth":0,"parameterNumber":2,"parameterNumberName":"U-component_of_WINDS"},"data":[0,0,0,0,0,0,0,0,0,0,0,0,0,0,0,0,0,0,0,0,0,0,0,0,0,0,0,0,0,0,0,0,0,0,0,0,0,0,0,0,0,0,0,0,0,0,0,0,0,0,0,0,0,0,0,0,0,0,0.0228,0.0229,0,0.0282,0.0283,0.0284,0.0338,0.0338,0.0339,0.034,0.0393,0.0394,0.0394,0,0,0,0,0,0,0,0,0,0,0,0,0,0.017,0.0171,0.0228,0.0229,0.023,0.0282,0.0283,0.0284,0.0338,0.0338,0.0339,0.034,0.0393,0.0394,0.0395,0,0,0,0,0,0,0,0,0,0,0,0,0,0.0207,0.0171,0.0228,0.0263,0.0267,0.0282,0.0283,0.0284,0.0337,0.0338,0.034,0.0341,0.0393,0.0394,0.0395,0.038,0,0,0.0398,0.0399,0,0,0,0,0,0,0,0,0.0205,0.0209,0.0257,0.0261,0.0265,0.0304,0.0282,0.0316,0.0337,0.031,0.034,0.0341,0.0363,0.0366,0.0374,0.0382,0.0384,0.0398,0.0399,0.0399,0.04,0,0,0,0,0,0,0,0.0202,0.0207,0.025,0.0258,0.0262,0.0275,0.0282,0.0289,0.033,0.0313,0.0317,0.0323,0.0365,0.0373,0.0375,0.0385,0.0398,0.0399,0.04,0.04,0.0383,0.0382,0,0,0,0,0,0,0.0194,0.0204,0.0248,0.0251,0.0237,0.0275,0.0283,0.0291,0.033,0.0337,0.0322,0.0325,0.037,0.0374,0.0378,0.0362,0.0399,0.04,0.0401,0.0384,0.0383,0.0382,0,0,0,0,0,0,0.0193,0.0198,0.0246,0.0229,0.0236,0.0275,0.0284,0.0291,0.0299,0.0336,0.0344,0.0322,0.0371,0.0376,0.0379,0.0365,0.0401,0.0402,0.0385,0.0384,0.0382,0.0331,0,0,0,0,0,0,0.0191,0.0197,0.0192,0.0228,0.0237,0.0246,0.0283,0.0291,0.0301,0.0306,0.0339,0.0345,0.0372,0.0377,0.038,0.0367,0.0403,0.0387,0.0385,0.0383,0.0334,0.0328,0.0322,0,0,0,0,0,0.0189,0.0175,0.0192,0.0197,0.0232,0.0246,0.025,0.0282,0.03,0.0295,0.0319,0.0344,0.0366,0.0377,0.038,0.0367,0.0388,0.0385,0.0383,0.0337,0.0329,0.0322,0,0,0,0,0,0,0.0136,0.0181,0.0199,0.0197,0.0217,0.0255,0.0249,0.0273,0.0288,0.0292,0.033,0.0337,0.0335,0.0352,0.0363,0.0355,0.038,0.0378,0.0344,0.0337,0.0331,0.0327,0.0404,0,0,0,0,0,0.0124,0.0132,0.0171,0.0165,0.0174,0.021,0.0217,0.024,0.0262,0.0271,0.0295,0.0315,0.0326,0.0332,0.0345,0.0337,0.0344,0.033,0.0324,0.0319,0.0316,0.0313,0.0306,0.0373,0.0373,0.0373,0,0,0.0099,0.0125,0.0127,0.0155,0.0173,0.018,0.0217,0.0223,0.0228,0.0271,0.0275,0.0294,0.0318,0.0315,0.0315,0.0329,0.03,0.0316,0.0311,0.0312,0.0309,0.0303,0.0297,0.0372,0.0372,0.0372,0,0,0.0057,0.0078,0.0075,0.0093,0.012,0.0144,0.0143,0.0177,0.0191,0.0196,0.0229,0.0235,0.0254,0.027,0.028,0.0245,0.0268,0.0248,0.0217,0.0212,0.0207,0.0203,0.0189,0.0184,0.0245,0.0245,0.0245,0,0.0023,0.0036,0.0071,0.0075,0.0085,0.0126,0.0123,0.0138,0.0168,0.0174,0.0189,0.0213,0.0232,0.0233,0.0225,0.0232,0.0232,0.0244,0.0205,0.0201,0.0197,0.0185,0.018,0.0242,0.0243,0.0243,0.0243,0,-0.0008,-0.0,-0.0006,0.0022,0.0032,0.0033,0.0067,0.0073,0.0095,0.0117,0.0121,0.0146,0.0164,0.0166,0.0187,0.0169,0.0177,0.0198,0.0225,0.0188,0.0176,0.0172,0.0238,0.0239,0.024,0.0241,0,0,-0.0082,-0.0035,-0.0037,-0.0024,0.0009,0.0015,0.0017,0.0035,0.0039,0.0058,0.006,0.0075,0.0094,0.0106,0.013,0.0126,0.0095,0.0148,0.0149,0.0136,0.0076,0.006,0.0054,0.0112,0.0111,0.011,0.0074,0,-0.0119,-0.0112,-0.0081,-0.0084,-0.0076,-0.0038,-0.0036,-0.0017,0.0004,0.0013,0.0035,0.0045,0.007,0.0078,0.0076,0.0099,0.0083,0.0102,0.0113,0.0113,0.0105,0.0048,0.0031,-0.0005,0.007,0.0069,0.0069,0,-0.0161,-0.0144,-0.0146,-0.0114,-0.0109,-0.0109,-0.009,-0.0081,-0.0058,-0.0043,-0.003,-0.0004,-0.0,0.0025,0.0029,0.0041,0.0048,0.006,0.0059,0.0061,0.0088,0.0047,-0.0015,-0.0021,0.0062,0.0063,0.0063,0,-0.0215,-0.0193,-0.0192,-0.0182,-0.0144,-0.0144,-0.0128,-0.0104,-0.0095,-0.0079,-0.0073,-0.0057,-0.0049,-0.0037,-0.0007,0.0008,-0.0007,0.0021,0.0005,0.0004,-0.0,-0.0,-0.0063,0.0005,0.0005,0.0005,0.0005,0,-0.026,-0.0263,-0.0216,-0.0216,-0.0218,-0.0182,-0.0186,-0.0166,-0.0145,-0.0141,-0.0106,-0.0103,-0.0064,-0.0056,-0.0033,-0.0033,-0.0029,-0.0017,-0.0011,-0.0021,-0.0023,-0.0017,-0.0014,0.0004,0.0004,0.0004,0.0004,0,-0.0322,-0.029,-0.0287,-0.025,-0.0242,-0.0245,-0.0215,-0.0213,-0.019,-0.0185,-0.0182,-0.0147,-0.0136,-0.0105,-0.0086,-0.0071,-0.0078,-0.0066,-0.0086,-0.0082,-0.01,-0.0099,-0.0162,-0.0169,-0.0096,-0.0097,-0.0098,0,-0.0353,-0.0354,-0.0318,-0.0313,-0.0298,-0.0289,-0.028,-0.0245,-0.0237,-0.0211,-0.0212,-0.0199,-0.0186,-0.0171,-0.0144,-0.013,-0.0118,-0.0141,-0.0116,-0.0125,-0.0119,-0.012,-0.012,-0.0147,-0.0148,-0.0149,-0.0149,0,-0.0411,-0.0396,-0.0383,-0.0366,-0.0356,-0.0341,-0.0324,-0.0321,-0.0281,-0.0274,-0.0263,-0.0253,-0.0234,-0.0221,-0.0203,-0.0187,-0.0162,-0.0157,-0.016,-0.0171,-0.0182,-0.0177,-0.0102,-0.0156,-0.0155,-0.0155,-0.0155,-0.0154,-0.0459,-0.0459,-0.0434,-0.0422,-0.0405,-0.039,-0.0386,-0.0363,-0.0352,-0.0334,-0.0314,-0.0304,-0.0282,-0.0254,-0.0241,-0.0233,-0.022,-0.0224,-0.0226,-0.0228,-0.0232,-0.0183,-0.023,-0.023,-0.0229,-0.0229,-0.0229,0,-0.0517,-0.0499,-0.0488,-0.0464,-0.0455,-0.0431,-0.0411,-0.0405,-0.0397,-0.0378,-0.0366,-0.0353,-0.034,-0.0313,-0.0298,-0.0298,-0.0286,-0.0295,-0.0295,-0.0292,-0.0245,-0.0244,-0.0305,-0.0305,-0.0305,-0.0305,-0.0305,-0.0305,-0.0546,-0.0544,-0.0526,-0.0516,-0.0498,-0.0488,-0.0479,-0.0465,-0.0449,-0.0436,-0.0425,-0.0407,-0.0384,-0.0367,-0.0355,-0.0347,-0.0344,-0.0357,-0.0346,-0.0302,-0.0295,-0.0289,-0.0288,-0.0357,-0.0357,-0.0394,-0.0394,-0.0394]},{"header":{"parameterUnit":"m.s-1","parameterCategory":1,"la1":30.2991,"la2":30.254,"lo1":-89.0895,"lo2":-89.0444,"dy":0.0017,"dx":0.0017,"nx":28,"ny":28,"refTime":"2024-06-21T09:00:00:Z","depth":0,"parameterNumber":3,"parameterNumberName":"V-component_of_WINDS"},"data":[0,0,0,0,0,0,0,0,0,0,0,0,0,0,0,0,0,0,0,0,0,0,0,0,0,0,0,0,0,0,0,0,0,0,0,0,0,0,0,0,0,0,0,0,0,0,0,0,0,0,0,0,0,0,0,0,0,0,0.3084,0.3084,0,0.3058,0.3057,0.3057,0.3042,0.3042,0.3042,0.3042,0.3013,0.3013,0.3012,0,0,0,0,0,0,0,0,0,0,0,0,0,0.3121,0.3121,0.3084,0.3084,0.3084,0.3058,0.3057,0.3057,0.3042,0.3042,0.3042,0.3042,0.3014,0.3013,0.3012,0,0,0,0,0,0,0,0,0,0,0,0,0,0.3101,0.3121,0.3084,0.3073,0.3072,0.3058,0.3057,0.3057,0.3042,0.3042,0.3042,0.3042,0.3014,0.3013,0.3012,0.3006,0,0,0.3008,0.3008,0,0,0,0,0,0,0,0,0.3102,0.31,0.3075,0.3074,0.3073,0.3053,0.306,0.304,0.3042,0.3053,0.3042,0.3042,0.3027,0.3024,0.3019,0.3005,0.3003,0.3008,0.3008,0.3007,0.3007,0,0,0,0,0,0,0,0.3104,0.3101,0.3074,0.3075,0.3073,0.3069,0.3066,0.3056,0.3041,0.3052,0.3051,0.3048,0.3026,0.3021,0.3019,0.3003,0.3008,0.3007,0.3007,0.3006,0.2981,0.2981,0,0,0,0,0,0,0.3107,0.3102,0.3075,0.3073,0.3088,0.3068,0.3065,0.3059,0.3041,0.3038,0.3048,0.3048,0.3022,0.302,0.3018,0.3009,0.3007,0.3006,0.3005,0.2981,0.2981,0.2981,0,0,0,0,0,0,0.3108,0.3105,0.3076,0.3087,0.3083,0.3068,0.3062,0.3059,0.3054,0.3038,0.3035,0.3046,0.3022,0.3019,0.3009,0.3008,0.3006,0.3005,0.2981,0.2981,0.2981,0.2993,0,0,0,0,0,0,0.3109,0.3105,0.3103,0.3087,0.3083,0.3068,0.3062,0.3058,0.3052,0.3051,0.3035,0.3032,0.3022,0.3011,0.3008,0.3006,0.3004,0.2981,0.2981,0.2981,0.2992,0.2993,0.2994,0,0,0,0,0,0.311,0.3107,0.3103,0.31,0.308,0.3068,0.3065,0.3054,0.3052,0.305,0.3039,0.3032,0.3009,0.301,0.3006,0.3005,0.2981,0.2981,0.2981,0.2992,0.2993,0.2994,0,0,0,0,0,0,0.3124,0.3105,0.31,0.3092,0.3082,0.3066,0.3062,0.3056,0.3046,0.3045,0.3031,0.3028,0.3019,0.3011,0.3012,0.2998,0.2994,0.2993,0.3003,0.3004,0.3005,0.3007,0.3003,0,0,0,0,0,0.3126,0.3118,0.3102,0.3096,0.3091,0.3078,0.3072,0.3065,0.3053,0.3049,0.3037,0.3026,0.3016,0.301,0.2999,0.2991,0.2987,0.2988,0.2989,0.2989,0.2989,0.2983,0.2983,0.2981,0.2981,0.2981,0,0,0.313,0.3119,0.3115,0.3099,0.309,0.3081,0.3074,0.3066,0.3059,0.3047,0.3037,0.3028,0.3015,0.3005,0.3,0.2998,0.2988,0.2989,0.299,0.2989,0.2983,0.2983,0.2983,0.2981,0.2981,0.2981,0,0,0.3133,0.3124,0.3118,0.3109,0.3096,0.3086,0.3085,0.307,0.3063,0.3053,0.3043,0.3035,0.3018,0.3008,0.3001,0.3,0.2993,0.2997,0.3001,0.2995,0.2995,0.2995,0.2994,0.2994,0.2997,0.2997,0.2997,0,0.3139,0.3127,0.3116,0.3108,0.3101,0.3089,0.3083,0.3075,0.3058,0.3054,0.3051,0.3029,0.3019,0.3007,0.3007,0.3002,0.2999,0.2999,0.2996,0.2996,0.2996,0.2995,0.2995,0.2997,0.2997,0.2997,0.2997,0,0.3136,0.3127,0.3124,0.3108,0.3101,0.3094,0.3081,0.3075,0.3067,0.3058,0.3047,0.3035,0.3022,0.3018,0.3011,0.3004,0.3003,0.2999,0.2995,0.2997,0.2996,0.2995,0.2998,0.2998,0.2998,0.2998,0,0,0.3147,0.3125,0.3124,0.3116,0.31,0.3093,0.3085,0.3072,0.3067,0.3056,0.3048,0.3034,0.3029,0.3021,0.3013,0.3008,0.3007,0.3004,0.3004,0.3005,0.2998,0.3002,0.3001,0.3002,0.3002,0.3002,0.2999,0,0.3147,0.3133,0.3122,0.3111,0.3102,0.3091,0.3084,0.3073,0.3064,0.3055,0.3045,0.3035,0.303,0.3025,0.302,0.3008,0.3006,0.3009,0.2995,0.2994,0.2998,0.3001,0.3004,0.3002,0.2999,0.2999,0.2999,0,0.3146,0.3135,0.3124,0.3108,0.3104,0.3098,0.3085,0.3077,0.3064,0.3057,0.3048,0.3039,0.303,0.3027,0.3012,0.3015,0.3008,0.3002,0.3001,0.2999,0.2997,0.2999,0.3002,0.3001,0.2998,0.2998,0.2998,0,0.3154,0.3137,0.3128,0.3122,0.3104,0.3099,0.3091,0.3078,0.3071,0.306,0.3055,0.3042,0.3035,0.3025,0.3013,0.3012,0.3,0.2996,0.2994,0.2994,0.2992,0.2992,0.2993,0.2988,0.2988,0.2988,0.2988,0,0.3156,0.3149,0.3132,0.3126,0.3118,0.3105,0.3097,0.3088,0.3076,0.3068,0.3058,0.305,0.3034,0.3025,0.3015,0.3004,0.3001,0.2996,0.2993,0.2996,0.2997,0.2992,0.2992,0.2988,0.2988,0.2988,0.2988,0,0.3164,0.3152,0.3141,0.3125,0.312,0.3115,0.31,0.3094,0.3084,0.3074,0.3071,0.3055,0.3043,0.303,0.3014,0.3007,0.2997,0.2993,0.3001,0.3,0.2998,0.2998,0.2996,0.2995,0.2991,0.2991,0.2991,0,0.3166,0.3161,0.3143,0.3137,0.3129,0.312,0.3112,0.3099,0.3092,0.3076,0.3071,0.3059,0.3048,0.3029,0.3016,0.3003,0.2999,0.2999,0.2997,0.3,0.2998,0.2999,0.2998,0.2999,0.3,0.3,0.3,0,0.317,0.3164,0.3154,0.3142,0.3133,0.3123,0.3112,0.3107,0.3092,0.3084,0.3072,0.3063,0.3046,0.3034,0.3019,0.301,0.3002,0.3,0.2999,0.3002,0.3007,0.3004,0.3003,0.3001,0.3,0.3,0.3,0.3,0.3175,0.3169,0.3156,0.3145,0.3135,0.3125,0.3118,0.3107,0.3097,0.3082,0.3075,0.3063,0.3049,0.3029,0.302,0.3009,0.3007,0.3005,0.3005,0.3004,0.3005,0.3009,0.3007,0.3007,0.3007,0.3007,0.3007,0,0.3178,0.3169,0.3158,0.3144,0.3135,0.3128,0.3116,0.3108,0.3098,0.3086,0.3075,0.3061,0.3048,0.3034,0.302,0.3014,0.301,0.3011,0.3011,0.3009,0.3008,0.3011,0.3015,0.3015,0.3015,0.3015,0.3015,0.3015,0.3178,0.3168,0.3161,0.3145,0.3136,0.3124,0.3117,0.3108,0.3098,0.3082,0.3072,0.3063,0.305,0.3035,0.3023,0.3019,0.3014,0.3016,0.3011,0.301,0.3009,0.3009,0.3011,0.3015,0.3015,0.3012,0.3012,0.3012]}]]